Location: Chinna Viriv?da
(16.5281°N, 81.0493°E)
Time: 22:36:25
(UTC+00:00)

Meteor 2-19 Rocket - Pass Details

Date: 14 April 2026
Orbit: 936 x 958 km, 82.5° (Epoch: 9 May)

Event Time Altitude Azimuth Distance (km) Brightness Sun altitude
Rises 14:24:23 0° 3° (N) 3,622 7.7 -22.5°
Reaches altitude 10° 14:26:57 10° 8° (N) 2,672 6.9 -23.1°
Maximum altitude 14:32:54 54° 84° (E) 1,133 4.5 -24.5°
Enters shadow 14:33:05 54° 91° (E) 1,135 4.4 -24.5°
